QPF
0.00 0.00 0.00 0.00 0.00 0.00 0.00 0.00 0.00 0.00 0.00 0.00 0.00 0.00 0.00 0.00 0.00 0.00 0.00 0.00 0.00 0.00 0.00 0.00 0.00 0.00 0.00 0.00 0.00 0.00 0.00 0.00 0.00 0.00 0.00 0.00 0.00 0.00 0.00 0.00 0.00 0.00 0.00
0.00 0.00 0.00 0.00 0.00 0.00 0.00 0.00 0.00 0.00 0.00 0.00 0.00 0.00 0.00 0.00 0.00 0.00 0.00 0.00 0.00 0.00 0.00 0.00 0.00 0.00 0.00 0.00 0.00 0.00 0.00 0.00 0.00 0.00 0.00 0.00 0.00 0.00 0.00 0.00 0.00 0.00 0.00
0.00 0.00 0.00 0.00 0.00 0.00 0.00 0.00 0.00 0.00 0.00 0.00 0.00 0.00 0.00 0.00 0.00 0.00 0.00 0.00 0.00 0.00 0.00 0.00 0.00 0.00 0.00 0.00 0.00 0.00 0.00 0.00 0.00 0.00 0.00 0.00 0.00 0.00 0.00 0.00 0.00 0.00 0.00
0.00 0.00 0.00 0.00 0.00 0.00 0.00 0.00 0.00 0.00 0.00 0.00 0.00 0.00 0.00 0.00 0.00 0.00 0.00 0.00 0.00 0.00 0.00 0.00 0.00 0.00 0.00 0.00 0.00 0.00 0.00 0.00 0.00 0.00 0.00 0.00 0.00 0.00 0.00 0.00 0.00 0.00 0.00
0.00 0.00 0.00 0.00 0.00 0.00 0.00 0.00 0.00 0.00 0.00 0.00 0.00 0.00 0.00 0.00 0.00 0.00 0.00 0.00 0.00 0.00 0.00 0.00 0.00 0.00 0.00 0.00 0.00 0.00 0.00 0.00 0.00 0.00 0.00 0.00 0.00 0.00 0.00 0.00 0.00 0.00 0.00
0.00 0.00 0.00 0.00 0.00 0.00 0.00 0.00 0.00 0.00 0.00 0.00 0.00 0.00 0.00 0.00 0.00 0.00 0.00 0.00 0.00 0.00 0.00 0.00 0.00 0.00 0.00 0.00 0.00 0.00 0.00 0.00 0.00 0.00 0.00 0.00 0.00 0.00 0.00 0.00 0.00 0.00 0.00
0.00 0.00 0.00 0.00 0.00 0.00 0.00 0.00 0.00 0.00 0.00 0.00 0.00 0.00 0.00 0.00 0.00 0.00 0.00 0.00 0.00 0.00 0.00 0.00 0.00 0.00 0.00 0.00 0.00 0.00 0.00 0.00 0.00 0.00 0.00 0.00 0.00 0.00 0.00 0.00 0.00 0.00 0.00
0.00 0.00 0.00 0.00 0.00 0.00 0.00 0.00 0.00 0.00 0.00 0.00 0.00 0.00 0.00 0.00 0.00 0.00 0.00 0.00 0.00 0.00 0.00 0.00 0.00 0.00 0.00 0.00 0.00 0.00 0.00 0.00 0.00 0.00 0.00 0.00 0.00 0.00 0.00 0.00 0.00 0.00 0.00
0.00 0.00 0.00 0.00 0.00 0.00 0.00 0.00 0.00 0.00 0.00 0.00 0.00 0.00 0.00 0.00 0.00 0.00 0.00 0.00 0.00 0.00 0.00 0.00 0.00 0.00 0.00 0.00 0.00 0.00 0.00 0.00 0.00 0.00 0.00 0.00 0.00 0.00 0.00 0.00 0.00 0.00 0.00
0.00 0.00 0.00 0.00 0.00 0.00 0.00 0.00 0.00 0.00 0.00 0.00 0.00 0.00 0.00 0.00 0.00 0.00 0.00 0.00 0.00 0.00 0.00 0.00 0.00 0.00 0.00 0.00 0.00 0.00 0.00 0.00 0.00 0.00 0.00 0.01 0.01 0.01 0.01 0.01 0.01 0.01 0.01
0.00 0.00 0.00 0.00 0.00 0.00 0.00 0.00 0.00 0.00 0.00 0.00 0.00 0.00 0.00 0.00 0.00 0.00 0.00 0.00 0.00 0.00 0.00 0.00 0.00 0.00 0.00 0.00 0.00 0.00 0.00 0.00 0.00 0.00 0.00 0.00 0.00 0.01 0.01 0.01 0.01 0.01 0.01
0.00 0.00 0.00 0.00 0.00 0.00 0.00 0.00 0.00 0.00 0.00 0.00 0.00 0.00 0.00 0.00 0.00 0.00 0.00 0.00 0.00 0.00 0.00 0.00 0.00 0.00 0.00 0.00 0.00 0.00 0.00 0.00 0.00 0.00 0.00 0.00 0.01 0.00 0.01 0.01 0.01 0.01 0.01
0.00 0.00 0.00 0.00 0.00 0.00 0.00 0.00 0.00 0.00 0.00 0.00 0.00 0.00 0.00 0.00 0.00 0.00 0.00 0.00 0.00 0.00 0.00 0.00 0.00 0.00 0.00 0.00 0.00 0.00 0.00 0.00 0.00 0.00 0.00 0.00 0.00 0.00 0.01 0.00 0.00 0.00 0.00
0.00 0.00 0.00 0.00 0.00 0.00 0.00 0.00 0.00 0.00 0.00 0.00 0.00 0.00 0.00 0.00 0.00 0.00 0.00 0.00 0.00 0.00 0.00 0.00 0.00 0.00 0.00 0.00 0.00 0.00 0.00 0.00 0.00 0.00 0.00 0.00 0.00 0.01 0.01 0.00 0.00 0.00 0.00
0.00 0.00 0.00 0.00 0.00 0.00 0.00 0.00 0.00 0.00 0.00 0.00 0.00 0.00 0.00 0.00 0.00 0.00 0.00 0.00 0.00 0.00 0.00 0.00 0.00 0.00 0.00 0.00 0.00 0.00 0.00 0.00 0.00 0.00 0.00 0.01 0.02 0.03 0.02 0.01 0.00 0.00 0.00
0.00 0.00 0.00 0.00 0.00 0.00 0.00 0.00 0.00 0.00 0.00 0.00 0.00 0.00 0.00 0.00 0.00 0.00 0.00 0.00 0.00 0.00 0.00 0.00 0.00 0.00 0.00 0.00 0.00 0.00 0.00 0.00 0.00 0.00 0.00 0.00 0.01 0.01 0.00 0.01 0.00 0.00 0.00
0.00 0.00 0.00 0.00 0.00 0.00 0.00 0.00 0.00 0.00 0.00 0.00 0.00 0.00 0.00 0.00 0.00 0.00 0.00 0.00 0.00 0.00 0.00 0.00 0.00 0.00 0.00 0.00 0.00 0.00 0.00 0.00 0.00 0.00 0.00 0.00 0.00 0.00 0.00 0.00 0.00 0.00 0.00
0.00 0.00 0.00 0.00 0.00 0.00 0.00 0.00 0.00 0.00 0.00 0.00 0.00 0.00 0.00 0.00 0.00 0.00 0.00 0.00 0.00 0.00 0.00 0.00 0.00 0.00 0.00 0.00 0.00 0.00 0.00 0.00 0.00 0.00 0.00 0.00 0.00 0.00 0.00 0.00 0.00 0.00 0.00
0.00 0.00 0.00 0.00 0.00 0.00 0.00 0.00 0.00 0.00 0.00 0.00 0.00 0.00 0.00 0.00 0.00 0.00 0.00 0.00 0.00 0.00 0.00 0.00 0.00 0.00 0.00 0.00 0.00 0.00 0.00 0.00 0.00 0.00 0.00 0.00 0.00 0.00 0.01 0.00 0.00 0.00 0.00
0.00 0.00 0.00 0.00 0.00 0.00 0.00 0.00 0.00 0.00 0.00 0.00 0.00 0.00 0.00 0.00 0.00 0.00 0.00 0.00 0.00 0.00 0.00 0.00 0.00 0.00 0.00 0.00 0.00 0.00 0.00 0.00 0.00 0.00 0.00 0.00 0.00 0.00 0.00 0.00 0.00 0.00 0.00
0.00 0.00 0.00 0.00 0.00 0.00 0.00 0.00 0.00 0.00 0.00 0.00 0.00 0.00 0.00 0.00 0.00 0.00 0.00 0.00 0.00 0.00 0.00 0.00 0.00 0.00 0.00 0.00 0.00 0.00 0.00 0.00 0.00 0.00 0.00 0.00 0.00 0.00 0.00 0.00 0.00 0.00 0.00
0.00 0.00 0.00 0.00 0.00 0.00 0.00 0.00 0.00 0.00 0.00 0.00 0.00 0.00 0.00 0.00 0.00 0.00 0.00 0.00 0.00 0.00 0.00 0.00 0.00 0.00 0.00 0.00 0.00 0.00 0.00 0.00 0.00 0.00 0.00 0.00 0.00 0.00 0.00 0.00 0.00 0.00 0.00
0.00 0.00 0.00 0.00 0.00 0.00 0.00 0.00 0.00 0.00 0.00 0.00 0.00 0.00 0.00 0.00 0.00 0.00 0.00 0.00 0.00 0.00 0.00 0.00 0.00 0.00 0.00 0.00 0.00 0.00 0.00 0.00 0.00 0.00 0.00 0.00 0.00 0.00 0.00 0.00 0.00 0.00 0.00
0.00 0.00 0.00 0.00 0.00 0.00 0.00 0.00 0.00 0.00 0.00 0.00 0.00 0.00 0.00 0.00 0.00 0.00 0.00 0.00 0.00 0.00 0.00 0.00 0.00 0.00 0.00 0.00 0.00 0.00 0.00 0.00 0.00 0.00 0.00 0.00 0.00 0.00 0.00 0.00 0.00 0.00 0.00
0.00 0.00 0.00 0.00 0.00 0.00 0.00 0.00 0.00 0.00 0.00 0.00 0.00 0.00 0.00 0.00 0.00 0.00 0.00 0.00 0.00 0.00 0.00 0.00 0.00 0.00 0.00 0.00 0.00 0.00 0.00 0.00 0.00 0.00 0.00 0.00 0.00 0.00 0.00 0.00 0.00 0.00 0.00
0.00 0.00 0.00 0.00 0.00 0.00 0.00 0.00 0.00 0.00 0.00 0.00 0.00 0.00 0.00 0.00 0.00 0.00 0.00 0.00 0.00 0.00 0.00 0.00 0.00 0.00 0.00 0.00 0.00 0.00 0.00 0.00 0.00 0.00 0.00 0.00 0.00 0.00 0.00 0.00 0.00 0.00 0.00
MSLP
1020.98 1021.47 1022.13 1022.74 1023.56 1024.52 1025.16 1025.70 1026.08 1026.52 1026.60 1026.79 1026.91 1026.84 1026.82 1026.38 1025.82 1026.01 1026.09 1025.93 1025.94 1025.96 1026.13 1026.24 1026.17 1026.00 1025.81 1025.50 1025.05 1024.81 1024.61 1024.37 1024.00 1023.76 1023.02 1022.12 1021.46 1021.46 1021.18 1020.70 1020.25 1019.96 1019.79
1021.82 1022.62 1023.28 1023.85 1024.94 1025.71 1026.16 1026.51 1026.98 1027.21 1027.29 1027.36 1027.43 1027.36 1027.02 1026.49 1026.42 1026.41 1026.34 1026.11 1026.01 1025.83 1025.76 1025.95 1025.99 1025.88 1025.87 1025.52 1025.26 1024.98 1024.96 1024.64 1024.30 1024.44 1023.97 1023.09 1022.06 1021.38 1021.49 1021.17 1020.78 1020.60 1020.23
1022.68 1023.64 1024.26 1025.24 1025.96 1026.58 1027.02 1027.32 1027.64 1027.80 1027.89 1027.76 1027.49 1027.17 1026.72 1026.72 1026.76 1026.66 1026.57 1026.15 1025.95 1025.74 1025.71 1025.87 1025.88 1025.74 1025.72 1025.59 1025.28 1024.94 1024.86 1024.88 1024.67 1024.57 1024.82 1024.49 1024.04 1023.13 1021.72 1021.35 1021.19 1020.96 1020.74
1023.64 1024.40 1025.41 1026.39 1026.94 1027.55 1027.69 1027.94 1028.29 1028.50 1028.38 1028.12 1028.06 1027.96 1027.93 1027.81 1027.56 1027.34 1026.99 1026.80 1026.34 1026.08 1026.05 1026.08 1025.92 1025.76 1025.62 1025.50 1025.12 1024.56 1024.72 1024.80 1024.98 1024.84 1024.82 1025.00 1024.95 1024.31 1022.72 1021.76 1021.42 1021.15 1020.94
1024.30 1025.26 1026.24 1026.92 1027.55 1027.97 1028.42 1028.66 1028.88 1028.88 1028.70 1028.58 1028.46 1028.42 1028.44 1028.19 1027.91 1027.71 1027.49 1027.23 1026.84 1026.51 1026.29 1026.04 1025.94 1025.72 1025.53 1025.26 1024.96 1024.72 1024.79 1024.74 1024.90 1025.03 1024.92 1024.66 1024.36 1024.06 1023.66 1022.22 1021.47 1021.34 1020.97
1025.07 1025.91 1026.68 1027.40 1028.16 1028.57 1028.84 1029.08 1029.18 1029.08 1028.92 1028.88 1028.69 1028.69 1028.71 1028.58 1028.49 1028.25 1028.04 1027.69 1027.34 1026.85 1026.50 1026.18 1025.96 1025.68 1025.50 1025.21 1025.00 1024.91 1024.84 1024.76 1024.70 1024.66 1024.59 1024.34 1024.18 1023.80 1023.50 1022.81 1021.96 1021.36 1020.86
1025.59 1026.40 1027.19 1027.95 1028.63 1029.07 1029.27 1029.25 1029.24 1029.24 1029.12 1028.94 1028.96 1028.94 1028.89 1028.80 1028.76 1028.52 1028.28 1027.98 1027.66 1027.26 1026.84 1026.41 1026.16 1025.91 1025.53 1025.18 1025.07 1024.89 1024.80 1024.66 1024.51 1024.29 1023.97 1023.72 1023.48 1023.12 1022.79 1022.46 1021.80 1021.22 1020.39
1025.89 1026.78 1027.57 1028.36 1028.94 1029.22 1029.47 1029.50 1029.40 1029.46 1029.16 1029.20 1029.25 1029.22 1029.16 1029.00 1028.81 1028.62 1028.39 1028.14 1027.83 1027.38 1026.92 1026.56 1026.20 1025.80 1025.32 1025.13 1024.86 1024.72 1024.62 1024.35 1024.14 1023.79 1023.44 1023.10 1022.60 1022.22 1021.96 1021.75 1021.39 1020.70 1020.12
1026.32 1027.16 1027.94 1028.71 1029.20 1029.47 1029.62 1029.60 1029.64 1029.53 1029.41 1029.41 1029.39 1029.40 1029.30 1029.14 1029.04 1028.84 1028.45 1028.29 1027.84 1027.20 1026.90 1026.60 1026.25 1025.77 1025.33 1024.98 1024.68 1024.65 1024.52 1024.30 1023.77 1023.34 1022.88 1022.48 1021.96 1021.19 1021.17 1020.92 1020.72 1020.46 1019.68
1026.56 1027.37 1028.36 1029.01 1029.39 1029.58 1029.58 1029.50 1029.54 1029.58 1029.52 1029.46 1029.49 1029.52 1029.48 1029.23 1029.09 1028.86 1028.68 1028.37 1027.86 1027.34 1026.95 1026.55 1026.10 1025.59 1025.20 1024.78 1024.77 1024.73 1024.32 1023.91 1023.30 1022.77 1022.29 1021.79 1021.25 1020.82 1020.45 1020.17 1019.88 1019.69 1019.45
1026.66 1027.70 1028.72 1029.27 1029.52 1029.66 1029.62 1029.61 1029.48 1029.66 1029.65 1029.61 1029.71 1029.73 1029.65 1029.48 1029.26 1029.06 1028.66 1028.25 1027.79 1027.24 1026.80 1026.23 1025.80 1025.45 1025.08 1024.89 1024.85 1024.52 1024.01 1023.48 1022.76 1022.21 1021.75 1021.14 1020.60 1020.11 1019.72 1019.47 1019.21 1018.98 1018.76
1026.73 1027.88 1028.78 1029.30 1029.60 1029.78 1029.72 1029.62 1029.64 1029.81 1029.81 1029.77 1029.97 1029.94 1029.80 1029.64 1029.40 1029.06 1028.56 1028.09 1027.68 1027.06 1026.54 1026.02 1025.64 1025.28 1024.90 1024.90 1024.73 1024.32 1023.80 1023.08 1022.35 1021.71 1021.16 1020.45 1019.83 1019.31 1018.92 1018.70 1018.51 1018.31 1018.09
1026.90 1027.99 1028.83 1029.45 1029.88 1030.09 1029.95 1029.80 1029.74 1029.92 1029.91 1030.01 1030.13 1030.10 1029.97 1029.79 1029.52 1029.09 1028.54 1028.05 1027.56 1026.98 1026.42 1025.84 1025.46 1025.02 1024.88 1024.77 1024.55 1024.13 1023.46 1022.62 1021.92 1021.22 1020.49 1019.77 1019.11 1018.47 1018.12 1017.94 1017.82 1017.66 1017.38
1026.76 1027.96 1029.02 1029.82 1030.21 1030.25 1030.22 1030.01 1030.00 1030.04 1030.15 1030.22 1030.28 1030.31 1030.13 1029.91 1029.58 1029.17 1028.63 1028.10 1027.51 1027.01 1026.36 1025.77 1025.31 1024.94 1024.97 1024.80 1024.40 1023.81 1023.00 1022.21 1021.44 1020.66 1019.89 1019.19 1018.49 1017.86 1017.29 1017.27 1017.18 1016.94 1016.69
1027.00 1028.49 1029.59 1030.26 1030.55 1030.49 1030.34 1030.03 1030.18 1030.27 1030.42 1030.48 1030.55 1030.52 1030.29 1030.01 1029.68 1029.26 1028.76 1028.17 1027.58 1026.91 1026.32 1025.86 1025.33 1025.20 1025.11 1024.80 1024.22 1023.55 1022.73 1022.11 1021.24 1020.37 1019.59 1018.87 1018.08 1017.42 1017.18 1016.83 1016.43 1016.30 1016.06
1027.94 1029.15 1030.02 1030.56 1030.81 1030.78 1030.42 1030.40 1030.52 1030.61 1030.66 1030.81 1030.82 1030.62 1030.40 1030.14 1029.84 1029.42 1028.90 1028.39 1027.82 1027.25 1026.69 1026.19 1025.72 1025.62 1025.32 1024.81 1024.10 1023.34 1022.66 1021.97 1021.08 1020.15 1019.29 1018.52 1017.73 1017.30 1016.68 1016.29 1015.83 1015.51 1015.05
1028.81 1029.77 1030.48 1030.92 1031.12 1030.90 1030.64 1030.63 1030.82 1030.87 1031.06 1031.15 1031.01 1030.82 1030.62 1030.35 1030.00 1029.60 1029.21 1028.73 1028.28 1027.64 1027.12 1026.66 1026.19 1025.97 1025.43 1024.82 1024.12 1023.24 1022.58 1021.78 1020.94 1020.04 1019.12 1018.22 1017.46 1016.78 1016.08 1015.40 1014.79 1014.29 1013.92
1029.62 1030.42 1030.94 1031.19 1031.16 1031.03 1030.88 1030.91 1031.16 1031.43 1031.52 1031.53 1031.29 1031.08 1030.86 1030.54 1030.29 1030.02 1029.71 1029.36 1028.87 1028.29 1027.78 1027.26 1026.70 1026.15 1025.53 1024.92 1024.17 1023.19 1022.40 1021.52 1020.71 1019.86 1018.93 1018.06 1017.08 1016.18 1015.34 1014.49 1013.80 1013.24 1012.82
1030.31 1030.92 1031.08 1031.14 1031.32 1031.22 1031.24 1031.50 1031.83 1031.92 1031.95 1031.90 1031.70 1031.38 1031.07 1030.84 1030.66 1030.54 1030.28 1030.05 1029.50 1028.97 1028.44 1027.89 1027.25 1026.57 1025.98 1025.16 1024.27 1023.16 1022.40 1021.42 1020.48 1019.61 1018.69 1017.74 1016.70 1015.72 1014.73 1013.84 1013.02 1012.34 1011.78
1030.77 1031.06 1031.12 1031.45 1031.41 1031.60 1031.70 1032.14 1032.40 1032.52 1032.50 1032.29 1031.97 1031.63 1031.34 1031.05 1031.07 1030.90 1030.70 1030.59 1030.15 1029.72 1029.13 1028.43 1027.76 1027.06 1026.32 1025.46 1024.37 1023.30 1022.58 1021.60 1020.58 1019.48 1018.45 1017.47 1016.55 1015.37 1014.24 1013.26 1012.41 1011.76 1011.09
1030.85 1031.25 1031.50 1031.74 1031.95 1031.97 1032.23 1032.65 1032.94 1032.97 1032.77 1032.48 1032.21 1031.92 1031.62 1031.23 1031.30 1031.18 1031.03 1030.82 1030.42 1029.96 1029.45 1028.86 1028.15 1027.36 1026.52 1025.64 1024.44 1023.51 1022.72 1021.89 1020.82 1019.76 1018.60 1017.61 1016.52 1015.32 1014.16 1013.14 1012.23 1011.60 1010.85
1031.15 1031.52 1031.89 1032.45 1032.66 1032.78 1032.94 1033.35 1033.42 1033.18 1032.94 1032.78 1032.54 1032.20 1031.87 1031.57 1031.53 1031.41 1031.25 1030.92 1030.60 1030.31 1029.88 1029.18 1028.42 1027.56 1026.65 1025.76 1024.67 1023.73 1022.96 1022.23 1021.24 1020.16 1019.16 1018.11 1016.86 1015.62 1014.52 1013.46 1012.51 1011.68 1011.11
1031.33 1031.77 1032.48 1033.08 1033.41 1033.62 1033.74 1033.89 1033.72 1033.26 1033.10 1033.11 1032.92 1032.50 1032.24 1031.94 1031.78 1031.61 1031.40 1031.13 1030.83 1030.81 1030.38 1029.74 1029.00 1028.00 1027.00 1026.08 1025.06 1024.15 1023.13 1022.53 1021.55 1020.75 1019.83 1018.70 1017.46 1016.26 1015.10 1014.08 1013.18 1012.30 1011.60
1031.69 1032.44 1033.17 1033.87 1034.32 1034.32 1034.23 1034.03 1033.75 1033.46 1033.38 1033.43 1033.18 1032.88 1032.79 1032.42 1032.12 1031.76 1031.51 1031.32 1031.21 1031.17 1030.86 1030.20 1029.59 1028.72 1027.61 1026.60 1025.75 1024.74 1023.72 1023.12 1022.10 1021.27 1020.44 1019.44 1018.26 1017.04 1016.04 1014.85 1013.93 1013.15 1012.36
1032.89 1033.45 1034.18 1034.78 1035.02 1034.84 1034.66 1034.34 1033.92 1033.72 1033.72 1033.63 1033.61 1033.48 1033.23 1032.89 1032.55 1032.07 1031.67 1031.50 1031.41 1031.53 1031.32 1030.70 1030.08 1029.28 1028.28 1027.40 1026.60 1025.57 1024.60 1023.90 1023.10 1022.02 1020.94 1019.78 1018.82 1017.95 1017.08 1016.06 1015.03 1014.05 1013.14
1033.80 1034.55 1035.20 1035.44 1035.49 1035.20 1034.94 1034.48 1033.96 1034.01 1034.17 1034.26 1034.16 1033.97 1033.71 1033.34 1032.97 1032.64 1032.12 1031.48 1031.23 1031.33 1031.32 1030.68 1030.11 1029.60 1028.76 1027.90 1027.07 1026.19 1025.30 1024.60 1023.73 1022.76 1022.17 1021.48 1020.63 1019.69 1018.69 1017.50 1016.32 1015.29 1014.26
Thickness
5645 5638 5630 5619 5606 5591 5577 5565 5556 5545 5537 5528 5518 5509 5500 5494 5488 5478 5468 5462 5453 5443 5433 5422 5414 5406 5400 5394 5389 5385 5378 5372 5371 5368 5369 5365 5368 5364 5363 5362 5362 5360 5360
5635 5625 5614 5604 5588 5574 5563 5553 5543 5533 5524 5515 5505 5496 5488 5483 5472 5463 5454 5447 5439 5429 5420 5409 5400 5393 5385 5380 5373 5369 5362 5356 5353 5347 5347 5349 5347 5350 5346 5344 5343 5341 5342
5624 5612 5603 5586 5574 5562 5552 5543 5532 5521 5511 5502 5494 5487 5480 5470 5458 5449 5441 5434 5426 5419 5409 5398 5389 5382 5374 5366 5360 5354 5348 5342 5335 5330 5323 5325 5325 5324 5326 5327 5324 5323 5322
5614 5604 5588 5573 5561 5549 5541 5531 5519 5508 5499 5491 5482 5472 5461 5451 5444 5436 5428 5418 5411 5404 5395 5386 5378 5370 5362 5354 5347 5342 5336 5328 5321 5316 5311 5304 5300 5299 5314 5308 5307 5305 5304
5602 5592 5577 5563 5550 5540 5529 5518 5508 5499 5490 5480 5470 5458 5448 5439 5432 5423 5413 5405 5397 5390 5381 5373 5364 5357 5349 5341 5335 5329 5322 5316 5309 5302 5297 5294 5290 5287 5287 5299 5297 5292 5289
5592 5580 5568 5555 5541 5529 5519 5509 5499 5490 5480 5470 5460 5447 5437 5428 5419 5409 5399 5391 5384 5376 5368 5359 5351 5343 5336 5329 5323 5317 5311 5305 5299 5293 5288 5285 5280 5275 5274 5275 5279 5280 5280
5581 5569 5556 5544 5531 5520 5511 5501 5491 5480 5470 5460 5449 5437 5426 5417 5406 5397 5388 5380 5370 5362 5355 5347 5339 5331 5324 5318 5312 5306 5300 5295 5289 5284 5281 5274 5270 5269 5267 5264 5265 5267 5272
5577 5562 5550 5536 5523 5513 5501 5491 5482 5470 5461 5448 5436 5425 5416 5405 5396 5387 5377 5367 5358 5350 5343 5335 5327 5321 5316 5310 5304 5298 5291 5286 5281 5276 5270 5268 5265 5263 5259 5255 5253 5256 5259
5567 5555 5541 5526 5514 5502 5492 5483 5471 5461 5450 5437 5425 5415 5405 5395 5384 5375 5365 5355 5347 5339 5332 5324 5317 5313 5308 5302 5297 5290 5282 5276 5271 5266 5263 5260 5257 5257 5251 5247 5245 5243 5250
5562 5548 5531 5516 5506 5496 5485 5475 5463 5451 5439 5428 5417 5406 5395 5385 5374 5364 5354 5345 5337 5330 5323 5316 5311 5306 5301 5296 5288 5280 5274 5268 5263 5259 5256 5252 5249 5245 5241 5239 5239 5237 5238
5555 5540 5521 5508 5498 5489 5478 5466 5455 5441 5431 5421 5408 5396 5385 5374 5363 5352 5344 5335 5328 5322 5316 5312 5306 5301 5295 5288 5280 5272 5266 5261 5258 5252 5247 5244 5240 5237 5235 5232 5231 5230 5230
5550 5532 5514 5503 5492 5481 5470 5460 5446 5434 5423 5412 5398 5387 5375 5364 5353 5343 5335 5327 5321 5316 5312 5307 5301 5296 5289 5280 5272 5264 5258 5254 5250 5245 5240 5237 5235 5232 5229 5227 5224 5223 5222
5544 5526 5511 5497 5485 5471 5461 5451 5439 5426 5415 5403 5389 5377 5365 5353 5343 5334 5327 5321 5316 5312 5308 5303 5297 5291 5283 5274 5264 5256 5251 5247 5242 5238 5235 5232 5230 5228 5224 5221 5217 5215 5215
5544 5523 5506 5489 5475 5463 5451 5442 5431 5419 5407 5394 5381 5368 5356 5344 5334 5327 5320 5315 5311 5308 5304 5299 5293 5286 5276 5266 5257 5251 5246 5242 5237 5233 5230 5227 5225 5223 5220 5215 5211 5209 5208
5539 5512 5493 5479 5464 5454 5443 5438 5424 5412 5399 5386 5372 5359 5347 5336 5328 5320 5315 5311 5308 5304 5299 5293 5288 5279 5269 5259 5250 5245 5241 5235 5231 5228 5225 5221 5219 5217 5212 5209 5207 5204 5203
5520 5501 5485 5469 5456 5445 5440 5430 5417 5404 5391 5377 5363 5351 5339 5330 5322 5316 5312 5308 5304 5299 5294 5287 5282 5271 5262 5252 5245 5239 5234 5229 5227 5224 5220 5217 5215 5210 5208 5205 5203 5202 5202
5507 5491 5476 5461 5448 5440 5434 5423 5411 5397 5382 5368 5355 5343 5333 5325 5318 5313 5308 5304 5298 5294 5288 5281 5274 5264 5256 5248 5240 5234 5230 5226 5224 5220 5216 5213 5210 5208 5206 5205 5205 5204 5204
5496 5480 5466 5454 5444 5435 5428 5418 5403 5388 5373 5359 5347 5337 5328 5321 5314 5309 5304 5298 5293 5288 5282 5275 5268 5259 5251 5244 5238 5234 5230 5226 5221 5216 5213 5210 5208 5207 5207 5208 5208 5208 5208
5486 5471 5460 5450 5440 5432 5422 5408 5393 5379 5365 5351 5340 5333 5325 5317 5311 5305 5299 5293 5288 5282 5276 5269 5263 5255 5247 5242 5238 5236 5231 5227 5222 5216 5212 5210 5209 5209 5209 5210 5211 5212 5215
5477 5466 5457 5446 5438 5427 5415 5400 5384 5370 5356 5344 5335 5329 5321 5315 5308 5302 5296 5288 5282 5276 5270 5265 5258 5252 5245 5241 5240 5238 5234 5228 5223 5219 5216 5213 5211 5213 5215 5218 5220 5223 5227
5474 5463 5452 5441 5431 5421 5408 5392 5377 5362 5351 5340 5333 5326 5318 5314 5307 5301 5295 5287 5282 5275 5269 5263 5257 5251 5247 5243 5241 5239 5235 5230 5225 5221 5219 5217 5217 5219 5222 5226 5229 5232 5236
5470 5458 5447 5434 5423 5412 5400 5384 5370 5359 5347 5337 5330 5323 5317 5313 5307 5301 5295 5290 5284 5277 5270 5265 5260 5254 5250 5245 5244 5241 5236 5232 5228 5225 5223 5221 5223 5226 5230 5234 5237 5241 5245
5467 5455 5440 5427 5415 5404 5391 5377 5366 5357 5344 5334 5327 5322 5316 5311 5307 5301 5296 5291 5285 5277 5271 5265 5259 5256 5253 5249 5247 5243 5240 5236 5233 5229 5227 5229 5231 5235 5239 5244 5248 5254 5259
5460 5448 5434 5421 5408 5397 5387 5376 5365 5353 5341 5333 5327 5321 5312 5309 5305 5301 5297 5291 5285 5276 5270 5265 5258 5254 5252 5251 5248 5245 5243 5240 5238 5236 5236 5237 5240 5245 5249 5256 5261 5265 5271
5447 5437 5424 5412 5401 5392 5382 5372 5363 5352 5341 5334 5326 5318 5311 5306 5303 5300 5297 5291 5286 5276 5267 5262 5258 5252 5248 5246 5243 5244 5244 5242 5241 5243 5245 5249 5252 5255 5258 5263 5268 5274 5280
5440 5428 5416 5406 5396 5389 5379 5371 5362 5350 5339 5330 5324 5317 5310 5305 5302 5297 5294 5293 5288 5279 5271 5267 5261 5254 5250 5249 5248 5248 5247 5247 5248 5251 5250 5249 5251 5254 5258 5265 5272 5278 5284